Voltar ao catálogo

DMSP 5D-3 F16 DEB

AtivoPO
NORAD 28081·DEBRIS·🇺🇸 United States

Lançado Oct 18, 2003 de Vandenberg Space Force Base

Loading…

Próximas Passagens (próximas 24 horas)

TLE

AtualizadoSource: Space-Track

Época: Sep 14, 2026, 13:44 UTC

1 28081U 03048E   26257.57273333  .00010976  00000-0  14210-2 0  9992
2 28081  98.4828 299.8959 0006537 235.8731 124.1861 14.81029578190425

Acompanhe DMSP 5D-3 F16 DEB em tempo real com AllMySat

Download on the App Store